sat.trackr.live / text

‹ back to catalog

TIANQI-32

NORAD 61198 · 2024-170D

PAYLOAD ACTIVE UNKNOWN

§ Identity

Operator
Country
PRC
Launch date
2024-09-20
Launch site
XICLF
Launch vehicle
Mass (kg)
RCS (m²)

External: N2YO · Heavens-Above · Gunter

§ Orbital elements

Epoch: 2026-05-25T02:36:36.222048Z

Period
102.92 min
Inclination
44.8603°
Eccentricity
0.0007887
Mean motion
13.99154635 rev/d
Perigee alt
891.0 km
Apogee alt
902.5 km
Semi-major
7,274.9 km
B*
1.2663e-4
RAAN
240.3550°
Arg perigee
315.5351°
Mean anomaly
44.4847°
Rev number
8,130

§ Raw data

TIANQI-321 61198U 24170D   26145.10875257  .00000057  00000+0  12663-3 0  99942 61198  44.8603 240.3550 0007887 315.5351  44.4847 13.99154635 81303

JSON: /api/v1/satellites/61198 · /tle

For live sub-satellite position, see the globe view (requires WebGL).

§ Visibility from observer

Set your observer location to see the next 7 days of passes ≥ 10°. The values pass through the URL so the page stays shareable.

No JS? Fill the form by hand. The geolocation button needs JavaScript.